Location: Street
(51.1247°N, 2.7429°W)
Time: 10:19:12
(UTC+01:00)

UWE-3 - Pass Details

Date: 05 April 2023
Orbit: 576 x 669 km, 97.7° (Epoch: 02 June)

Event Time Altitude Azimuth Distance (km) Brightness Sun altitude
Rises 05:22:53 0° 5° (N) 2,975 ? -12.1°
Reaches altitude 10° 05:25:24 10° 353° (N) 2,043 ? -11.7°
Maximum altitude 05:29:03 26° 298° (WNW) 1,253 ? -11.2°
Enters shadow 05:31:39 15° 251° (WSW) 1,673 ? -10.9°
